Weather History for Three Rivers, MI

Change the Weather History Date:

Thursday, March 20, 2014

  Actual Average Record
Temperature  
Mean Temperature 34 °F -  
Max Temperature 40 °F 46 °F 81 °F (2012)
Min Temperature 29 °F 27 °F 9 °F (1965)
Degree Days  
Heating Degree Days 30    
Moisture  
Dew Point 25 °F    
Average Humidity 67    
Maximum Humidity 86    
Minimum Humidity 52    
Precipitation  
Precipitation 0.00 in - - ()
Sea Level Pressure  
Sea Level Pressure 29.99 in    
Wind  
Wind Speed 12 mph (WNW)    
Max Wind Speed 18 mph    
Max Gust Speed 26 mph    
Visibility 10 miles    
Events Snow    
Averages and records for this station are not official NWS values.
T = Trace of Precipitation, MM = Missing Value Source: NWS Daily Summary

Daily Weather History Graph

Daily Weather History Graph

Search for Another Location

Airport:

Trip Planner

Search our weather history database for the weather conditions in past years. The results will help you decide how hot, cold, wet, or windy it might be!

Date:

Astronomy

Mar. 20, 2014 Rise Set
Actual Time 7:45 AM EDT 7:54 PM EDT
Civil Twilight 7:17 AM EDT 8:22 PM EDT
Nautical Twilight 6:45 AM EDT 8:55 PM EDT
Astronomical Twilight 6:12 AM EDT 9:28 PM EDT
Moon No Moon Rise 9:47 AM EDT (3/20)
Length of Visible Light 13h 04m
Length of Day
12h 08m
Waning Gibbous, 84% of the Moon is Illuminated
Mar 20
Waning Gibbous
Mar 23
Last Quarter
Mar 30
New
Apr 7
First Quarter
Apr 15
Full

Hourly Weather History & Observations

Time (EDT) Temp. Windchill Dew Point Humidity Pressure Visibility Wind Dir Wind Speed Gust Speed Precip Events Conditions
12:15 AM 34.7 °F 24.0 °F 30.7 °F 85% 29.90 in 5.0 mi West 18.4 mph 25.3 mph N/A   Overcast
12:35 AM 34.9 °F 25.3 °F 30.0 °F 82% 29.90 in 7.0 mi West 15.0 mph 25.3 mph N/A   Overcast
12:55 AM 34.7 °F 25.5 °F 29.5 °F 81% 29.91 in 7.0 mi West 13.8 mph 25.3 mph N/A Snow Light Snow
1:14 AM 34.7 °F 25.1 °F 29.3 °F 81% 29.91 in 7.0 mi West 15.0 mph 20.7 mph N/A Snow Light Snow
1:35 AM 34.3 °F 25.0 °F 29.3 °F 82% 29.92 in 7.0 mi West 13.8 mph 23.0 mph N/A   Overcast
1:55 AM 34.7 °F 25.9 °F 28.9 °F 79% 29.92 in 7.0 mi West 12.7 mph - N/A   Overcast
2:14 AM 34.7 °F 25.9 °F 28.9 °F 79% 29.92 in 7.0 mi West 12.7 mph 21.9 mph N/A   Overcast
2:35 AM 34.7 °F 25.1 °F 28.4 °F 78% 29.92 in 10.0 mi West 15.0 mph 20.7 mph N/A   Overcast
2:55 AM 34.7 °F 25.5 °F 28.2 °F 77% 29.93 in 10.0 mi West 13.8 mph 17.3 mph N/A   Overcast
3:14 AM 34.3 °F 25.0 °F 27.9 °F 77% 29.93 in 10.0 mi West 13.8 mph - N/A   Overcast
3:35 AM 34.3 °F 25.0 °F 27.5 °F 76% 29.93 in 10.0 mi West 13.8 mph 20.7 mph N/A   Overcast
3:55 AM 34.2 °F 24.4 °F 27.5 °F 77% 29.93 in 10.0 mi West 15.0 mph - N/A   Overcast
4:14 AM 34.0 °F 24.6 °F 27.3 °F 77% 29.93 in 10.0 mi West 13.8 mph 19.6 mph N/A   Overcast
4:35 AM 34.0 °F 25.5 °F 27.1 °F 76% 29.93 in 10.0 mi West 11.5 mph 17.3 mph N/A   Overcast
4:55 AM 33.8 °F 23.9 °F 27.1 °F 77% 29.93 in 10.0 mi West 15.0 mph 19.6 mph N/A   Overcast
5:15 AM 33.8 °F 26.4 °F 27.0 °F 76% 29.94 in 10.0 mi West 9.2 mph - N/A   Overcast
5:35 AM 33.8 °F 25.3 °F 26.4 °F 74% 29.94 in 10.0 mi West 11.5 mph 18.4 mph N/A   Overcast
5:54 AM 33.4 °F 25.4 °F 25.5 °F 73% 29.95 in 10.0 mi West 10.4 mph - N/A   Overcast
6:15 AM 33.4 °F 25.4 °F 24.8 °F 71% 29.95 in 10.0 mi WSW 10.4 mph - N/A   Overcast
6:35 AM 33.4 °F 24.8 °F 24.4 °F 70% 29.95 in 10.0 mi West 11.5 mph - N/A   Overcast
6:54 AM 33.3 °F 23.2 °F 24.4 °F 70% 29.96 in 10.0 mi West 15.0 mph - N/A   Overcast
7:15 AM 33.1 °F 24.4 °F 23.9 °F 69% 29.96 in 10.0 mi West 11.5 mph - N/A   Overcast
7:35 AM 33.1 °F 25.5 °F 23.9 °F 69% 29.97 in 10.0 mi West 9.2 mph - N/A   Overcast
7:54 AM 33.1 °F 24.9 °F 23.5 °F 68% 29.97 in 10.0 mi West 10.4 mph - N/A   Overcast
8:15 AM 33.1 °F 24.9 °F 23.5 °F 68% 29.98 in 10.0 mi West 10.4 mph - N/A   Overcast
8:35 AM 33.3 °F 24.1 °F 22.8 °F 66% 29.99 in 10.0 mi West 12.7 mph - N/A   Overcast
8:54 AM 33.8 °F 24.8 °F 22.1 °F 62% 29.99 in 10.0 mi West 12.7 mph 18.4 mph N/A   Overcast
9:15 AM 33.8 °F 24.8 °F 22.3 °F 63% 30.00 in 10.0 mi West 12.7 mph - N/A   Overcast
9:35 AM 34.2 °F 26.2 °F 22.8 °F 63% 30.00 in 10.0 mi West 10.4 mph 18.4 mph N/A   Overcast
9:55 AM 34.3 °F 25.5 °F 23.5 °F 65% 30.01 in 10.0 mi West 12.7 mph 21.9 mph N/A   Overcast
10:15 AM 34.7 °F 25.9 °F 24.6 °F 67% 30.01 in 10.0 mi West 12.7 mph - N/A   Mostly Cloudy
10:34 AM 36.0 °F 27.1 °F 25.3 °F 65% 30.02 in 10.0 mi West 13.8 mph - N/A   Mostly Cloudy
10:55 AM 36.1 °F 28.2 °F 24.1 °F 62% 30.02 in 10.0 mi WNW 11.5 mph 15.0 mph N/A   Mostly Cloudy
11:15 AM 36.9 °F 27.8 °F 22.6 °F 56% 30.02 in 10.0 mi WNW 15.0 mph 20.7 mph N/A   Mostly Cloudy
11:34 AM 37.0 °F 28.1 °F 22.8 °F 56% 30.02 in 10.0 mi West 15.0 mph 23.0 mph N/A   Mostly Cloudy
11:55 AM 37.6 °F 28.8 °F 22.8 °F 55% 30.02 in 10.0 mi WNW 15.0 mph 25.3 mph N/A   Mostly Cloudy
12:15 PM 38.3 °F 29.7 °F 23.7 °F 56% 30.02 in 10.0 mi WNW 15.0 mph 26.5 mph N/A   Overcast
12:34 PM 39.4 °F 31.8 °F 24.3 °F 55% 30.01 in 10.0 mi WNW 12.7 mph 21.9 mph N/A   Mostly Cloudy
12:55 PM 38.1 °F 29.8 °F 25.2 °F 60% 30.02 in 10.0 mi WNW 13.8 mph 23.0 mph N/A   Overcast
1:15 PM 38.8 °F 31.6 °F 24.8 °F 57% 30.01 in 10.0 mi WNW 11.5 mph - N/A   Mostly Cloudy
1:34 PM 39.7 °F 31.9 °F 25.3 °F 56% 30.01 in 10.0 mi WNW 13.8 mph 19.6 mph N/A   Mostly Cloudy
1:55 PM 38.7 °F 30.5 °F 24.4 °F 57% 30.02 in 10.0 mi WNW 13.8 mph - N/A   Overcast
2:15 PM 40.1 °F 31.3 °F 26.2 °F 58% 30.01 in 10.0 mi WNW 17.3 mph 20.7 mph N/A   Overcast
2:34 PM 39.4 °F 31.4 °F 25.7 °F 58% 30.01 in 10.0 mi West 13.8 mph - N/A   Mostly Cloudy
2:55 PM 39.4 °F 32.3 °F 25.9 °F 58% 30.00 in 10.0 mi NW 11.5 mph 20.7 mph N/A   Mostly Cloudy
3:14 PM 39.2 °F 32.5 °F 25.0 °F 57% 30.00 in 10.0 mi WNW 10.4 mph - N/A   Overcast
3:35 PM 38.8 °F 30.8 °F 24.3 °F 56% 30.01 in 10.0 mi WNW 13.8 mph - N/A   Mostly Cloudy
3:55 PM 38.8 °F 31.6 °F 24.4 °F 56% 30.00 in 10.0 mi NW 11.5 mph - N/A   Scattered Clouds
4:14 PM 40.5 °F 32.5 °F 24.1 °F 52% 30.00 in 10.0 mi WNW 15.0 mph 19.6 mph N/A   Scattered Clouds
4:35 PM 39.6 °F 32.1 °F 23.9 °F 54% 30.01 in 10.0 mi West 12.7 mph - N/A   Scattered Clouds
4:55 PM 39.7 °F 32.3 °F 24.1 °F 54% 30.01 in 10.0 mi WNW 12.7 mph - N/A   Scattered Clouds
5:15 PM 39.7 °F 33.2 °F 24.4 °F 54% 30.01 in 10.0 mi WNW 10.4 mph 18.4 mph N/A   Scattered Clouds
5:35 PM 39.9 °F 33.9 °F 23.9 °F 53% 30.01 in 10.0 mi WNW 9.2 mph - N/A   Scattered Clouds
5:54 PM 39.6 °F 34.7 °F 23.5 °F 53% 30.01 in 10.0 mi NNW 6.9 mph - N/A   Scattered Clouds
6:15 PM 39.2 °F 34.2 °F 23.2 °F 53% 30.01 in 10.0 mi NW 6.9 mph - N/A   Clear
6:35 PM 39.2 °F 33.0 °F 23.5 °F 53% 30.01 in 10.0 mi WNW 9.2 mph - N/A   Clear
6:54 PM 38.7 °F 32.4 °F 22.8 °F 53% 30.01 in 10.0 mi WNW 9.2 mph - N/A   Clear
7:15 PM 38.3 °F 33.9 °F 23.0 °F 54% 30.02 in 10.0 mi WNW 5.8 mph - N/A   Clear
7:35 PM 37.4 °F 32.8 °F 23.2 °F 57% 30.02 in 10.0 mi WNW 5.8 mph - N/A   Clear
7:54 PM 36.1 °F 31.4 °F 23.9 °F 61% 30.02 in 10.0 mi WNW 5.8 mph - N/A   Clear
8:15 PM 35.1 °F - 23.7 °F 63% 30.02 in 10.0 mi Calm Calm - N/A   Clear
8:35 PM 34.0 °F - 23.7 °F 66% 30.03 in 10.0 mi Calm Calm - N/A   Clear
8:54 PM 32.9 °F - 23.4 °F 68% 30.03 in 10.0 mi Calm Calm - N/A   Clear
9:15 PM 32.7 °F - 23.7 °F 69% 30.04 in 4.0 mi Calm Calm - N/A   Haze
9:35 PM 31.8 °F - 23.9 °F 73% 30.04 in 10.0 mi Calm Calm - N/A   Clear
9:54 PM 30.2 °F - 23.9 °F 77% 30.04 in 10.0 mi Calm Calm - N/A   Clear
10:15 PM 30.2 °F - 23.2 °F 75% 30.04 in 10.0 mi Calm Calm - N/A   Clear
10:35 PM 29.8 °F 26.3 °F 23.7 °F 78% 30.04 in 10.0 mi NE 3.5 mph - N/A   Clear
10:55 PM 30.0 °F - 25.5 °F 83% 30.04 in 10.0 mi Calm Calm - N/A   Clear
11:15 PM 29.5 °F - 24.8 °F 83% 30.05 in 10.0 mi Calm Calm - N/A   Clear
11:34 PM 29.7 °F - 24.8 °F 82% 30.06 in 10.0 mi Calm Calm - N/A   Clear
11:55 PM 29.3 °F - 25.5 °F 86% 30.06 in 10.0 mi Calm Calm - N/A   Clear